COSMOS 1275 DEB, 12690

Orbit data source: Space-Track

COSMOS 1275 DEB, 12690 is space debris in LEO originally from a launch on Thu, 04 Jun 1981 UTC launched from the Plesetsk Missile And Space Complex (PKMTR). Debris objects in space refer to the collection of defunct objects orbiting the Earth. Examples of debris include non-operational satellites, rocket bodies, and fragments generated from explosions, collisions, or faulty payload assembly.

Loading next visibility...
COSMOS 1275 DEB details
Identifier
12690, 1981-053AJ
Orbit
LEO
Last TLE update8 hours ago
Origin
Flag of CISVMF (CIS)
ManufacturerUnknown
MissionSpacecraft
Bus & MotorUnknown
MassUnknown
Launch date (UTC)
1981-06-04 (44 years ago)
Launch vehicleUnknown
Launch site
Plesetsk Missile And Space Complex (PKMTR)
Object type
Payload
Rocket body
Debris
Shape & HBRUnknown
Radar Cross SectionMedium (>0.1 m² and <1 m²)

Expand to show TLE details & history

TLE from 8 hours ago
0 COSMOS 1275 DEB
1 12690U 81053AJ  24361.15388138  .00002763  00000-0  23725-2 0  9997
2 12690  82.9529  19.7764 0092555 199.0519 228.7718 13.84490730169896
Epoch: 2024-12-26T03:41Z
Definitive object data (Epoch: 2024-12-26T03:41:35.351Z)
Latitude66.11431°
Longitude-114.63489°
Altitude1,004.483 km
Speed7.333 km/s
True Right ascension02h 23m 35s
True Declination65° 59' 28"
Sunlit
Object was in full shadow at TLE epoch
Visualization TLE readout
Latitude-10.85691°
Longitude-132.36945°
Altitude1,012.22 km
Speed7.315 km/s
Apparent Right ascension00h 27m 40s
Apparent Declination-24° 47' 36"
Sunlit
Object is in daylight
Visualization observer readout
Local Sidereal Time11:20:30
Azimuth311.983° NW
Elevation-69.337°
Doppler factor1
Orbital elements
Apogee altitude1,012.917 km
Perigee altitude877.356 km
Semi-major axis7,323.274 km
Eccentricity0.0092555
Inclination82.9529°
RAAN19.7764°
Arg. of periapsis199.0519°
True anomaly227.98019°
Mean anomaly228.7718°
Eccentric anomaly228.37539°
Mean motion3.46326 °/min
BSTAR0.0023725
Orbital period103.95 mins
Loading maneuver chart data...
Loading historical data...
Loading historical data...
Loading historical data...
Loading historical data...
Loading historical data...
Loading historical data...
Loading historical data...

COSMOS 1275 DEB Visibility forecast

Observer location: undefined°, undefined

Span
Click to sort rows by Start time (UTC) header in descending order
Start Az.
Max El. time (UTC)
Max El. Az.
Max El.
End time (UTC)
End Az.
9 mins2024-12-26 12:38:03.909Z15.896° NNE2024-12-26 12:42:03.909Z66.832° ENE29.313°2024-12-26 12:47:03.909Z136.408° SSE
9 mins2024-12-26 14:23:03.909Z326.281° NNW2024-12-26 14:27:03.909Z273.98° WNW27.077°2024-12-26 14:32:03.909Z213.793° SW
10 mins2024-12-27 02:02:03.909Z177.106° S2024-12-27 02:07:03.909Z53.343° ENE43.667°2024-12-27 02:12:03.909Z10.862° NNE
5 mins2024-12-27 03:50:03.909Z271.091° WNW2024-12-27 03:52:03.909Z292.51° NW15.854°2024-12-27 03:55:03.909Z323.236° NNW
|